Mercury, NV

2:05 PM PDT on July 27, 2017 (GMT -0700)
Mercury

Weather History for KDRA - April, 2013

Change the Weather History Date:

Monday, April 22, 2013

  Actual Average Record
Temperature  
Mean Temperature 70 °F 62 °F  
Max Temperature 88 °F 75 °F 95 °F (2012)
Min Temperature 52 °F 48 °F 37 °F (2001)
Degree Days  
Heating Degree Days 0    
Cooling Degree Days 5    
Growing Degree Days 20 (Base 50)    
Moisture  
Dew Point 14 °F    
Average Humidity 11    
Maximum Humidity 22    
Minimum Humidity 4    
Precipitation  
Precipitation 0.00 in 0.01 in 0.22 in (2010)
Month to date precipitation 0.26  
Year to date precipitation 2.54  
Sea Level Pressure  
Sea Level Pressure 29.77 in    
Wind  
Wind Speed 7 mph (NNW)    
Max Wind Speed 26 mph    
Max Gust Speed 40 mph    
Visibility 10 miles    
Events      
T = Trace of Precipitation, MM = Missing Value Source: NWS Daily Summary

Daily Weather History Graph

Daily Weather History Graph

Search for Another Location

Airport or City:

Trip Planner

Search our weather history database for the weather conditions in past years. The results will help you decide how hot, cold, wet, or windy it might be!

Date:

Astronomy

Apr. 22, 2013 Rise Set
Actual Time 6:00 AM PDT 7:24 PM PDT
Civil Twilight 5:33 AM PDT 7:52 PM PDT
Nautical Twilight 5:01 AM PDT 8:24 PM PDT
Astronomical Twilight 4:27 AM PDT 8:58 PM PDT
Moon 4:22 PM PDT (4/22) 3:52 AM PDT (4/22)
Length of Visible Light 14h 18m
Length of Day
13h 24m
Waxing Gibbous, 88% of the Moon is Illuminated
Apr 22
Waxing Gibbous
Apr 25
Full
May 2
Last Quarter
May 9
New
May 17
First Quarter

Hourly Weather History & Observations

Time (PDT) Temp. Dew Point Humidity Pressure Visibility Wind Dir Wind Speed Gust Speed Precip Events Conditions
12:52 AM 64.9 °F 14.0 °F 14% 29.82 in 10.0 mi North 6.9 mph - N/A   Clear
1:52 AM 63.0 °F 14.0 °F 15% 29.81 in 10.0 mi NNE 9.2 mph - N/A   Clear
2:52 AM 63.0 °F 14.0 °F 15% 29.81 in 10.0 mi NNE 3.5 mph - N/A   Clear
3:52 AM 59.0 °F 14.0 °F 17% 29.81 in 10.0 mi NE 3.5 mph - N/A   Clear
4:52 AM 53.1 °F 12.9 °F 20% 29.83 in 10.0 mi Calm Calm - N/A   Clear
5:52 AM 54.0 °F 14.0 °F 21% 29.84 in 10.0 mi Calm Calm - N/A   Clear
6:52 AM 54.0 °F 15.1 °F 22% 29.86 in 10.0 mi Calm Calm - N/A   Clear
7:52 AM 66.9 °F 16.0 °F 14% 29.86 in 10.0 mi Calm Calm - N/A   Clear
8:52 AM 73.9 °F 17.1 °F 12% 29.85 in 10.0 mi NNE 11.5 mph - N/A   Clear
10:52 AM 79.0 °F 18.0 °F 10% 29.84 in 10.0 mi Calm Calm - N/A   Clear
11:52 AM 81.0 °F 18.0 °F 10% 29.81 in 10.0 mi SW 8.1 mph - N/A   Clear
12:52 PM 82.0 °F 18.0 °F 9% 29.78 in 10.0 mi SW 9.2 mph - N/A   Clear
1:52 PM 86.0 °F 18.0 °F 8% 29.75 in 10.0 mi WSW 11.5 mph 17.3 mph N/A   Clear
2:52 PM 84.9 °F 18.0 °F 8% 29.72 in 10.0 mi SSW 17.3 mph 23.0 mph N/A   Clear
3:52 PM 87.1 °F 12.0 °F 6% 29.69 in 10.0 mi West 17.3 mph 25.3 mph N/A   Clear
4:52 PM 86.0 °F 12.9 °F 7% 29.68 in 10.0 mi Variable 5.8 mph 18.4 mph N/A   Clear
5:52 PM 84.0 °F 16.0 °F 8% 29.68 in 10.0 mi SW 12.7 mph 18.4 mph N/A   Clear
6:52 PM 82.0 °F 15.1 °F 8% 29.67 in 10.0 mi SW 11.5 mph 20.7 mph N/A   Clear
7:52 PM 77.0 °F 14.0 °F 9% 29.66 in 10.0 mi WSW 6.9 mph - N/A   Clear
8:52 PM 73.9 °F 12.0 °F 9% 29.69 in 10.0 mi NNE 10.4 mph - N/A   Clear
9:52 PM 73.0 °F 10.0 °F 9% 29.71 in 10.0 mi NNE 15.0 mph 26.5 mph N/A   Clear
10:52 PM 71.1 °F 6.1 °F 8% 29.72 in 10.0 mi NNE 20.7 mph 28.8 mph N/A   Clear
11:52 PM 66.0 °F 17.1 °F 15% 29.78 in 10.0 mi NE 26.5 mph 40.3 mph N/A   Clear